Regional Weather Roundup
Issued by NWS

Home | Current Version | Previous Version | Graphics & Text | Print | Product List | Glossary On
Versions: 1 2 3 4 5 6 7 8 9 10 11 12 13 14 15 16 17 18 19 20 21 22 23 24 25 26 27 28 29 30 31 32 33 34 35 36 37 38 39 40 41 42 43 44 45 46 47 48 49 50
000
ASUS43 KFSD 240510
RWRSD

WEATHER ROUNDUP FOR SOUTH DAKOTA
NATIONAL WEATHER SERVICE SIOUX FALLS SD
1200 AM CDT SAT JUN 24 2017

NOTE: "FAIR" INDICATES FEW OR NO CLOUDS BELOW 12,000 FEET WITH NO
SIGNIFICANT WEATHER AND/OR OBSTRUCTIONS TO VISIBILITY.


SDZ001>005-009-010-012>017-240600-
NORTHWEST AND NORTH CENTRAL SOUTH DAKOTA

CITY           SKY/WX    TMP DP  RH WIND       PRES   REMARKS
BUFFALO          N/A     51  29  42 W7        30.15S
FAITH            N/A     51  33  50 NW7       30.18S
MOBRIDGE       CLEAR     47  38  71 CALM      30.12R
$$

SDZ012>016-024>037-041>051-057-063-072>074-240600-
SOUTHWEST AND SOUTH CENTRAL SOUTH DAKOTA

CITY           SKY/WX    TMP DP  RH WIND       PRES   REMARKS
RAPID CTY ARPT CLEAR     48  28  46 NW7       30.24R
PIERRE         CLEAR     53  39  59 N8        30.14R
CUSTER         CLEAR     47  25  42 NW6       30.31S
ELLSWORTH AFB  CLEAR     49  29  45 W7        30.23S
PHILIP         PTCLDY    46  33  60 W7        30.19R
PINE RIDGE     CLEAR     45  37  73 E3        30.25R
SPEARFISH      FAIR      52  30  43 W5        30.27S
WINNER         FAIR      52  35  52 W6        30.17R
$$

SDZ004>011-016>023-039-040-240600-
NORTHEAST SOUTH DAKOTA

CITY           SKY/WX    TMP DP  RH WIND       PRES   REMARKS
ABERDEEN       CLEAR     50  40  68 NW7       30.10S
WATERTOWN      CLEAR     54  43  66 NW9       30.08R
BROOKINGS      CLEAR     50  42  74 NW6       30.09R
SISSETON         N/A     57  40  52 NW14      30.04R
$$

SDZ017-020-022-023-036>040-048>070-240600-
SOUTHEAST SOUTH DAKOTA

CITY           SKY/WX    TMP DP  RH WIND       PRES   REMARKS
SIOUX FALLS    CLEAR     53  43  68 W8        30.09R
HURON          CLEAR     48  44  86 NW6       30.12R
CHAMBERLAIN    CLEAR     56  41  57 NW5       30.15R
MITCHELL       CLEAR     55  40  56 W6        30.12R
YANKTON        PTCLDY    57  41  55 W6        30.12S
$$

ABBREVIATIONS USED IN REMARKS
   TC - TEMPERATURE IN CELSIUS
  WCI - WIND CHILL INDEX
   HX - HEAT INDEX
  VSB - VISIBILITY




USA.gov is the U.S. government's official web portal to all federal, state and local government web resources and services.